[[{"header":{"parameterUnit":"m.s-1","parameterCategory":1,"la1":30.2991,"la2":30.254,"lo1":-89.0895,"lo2":-89.0444,"dy":0.0017,"dx":0.0017,"nx":28,"ny":28,"refTime":"2024-08-09T15:00:00:Z","depth":0,"parameterNumber":2,"parameterNumberName":"U-component_of_WINDS"},"data":[0,0,0,0,0,0,0,0,0,0,0,0,0,0,0,0,0,0,0,0,0,0,0,0,0,0,0,0,0,0,0,0,0,0,0,0,0,0,0,0,0,0,0,0,0,0,0,0,0,0,0,0,0,0,0,0,0,0,2.631,2.6312,0,2.6506,2.6508,2.651,2.6512,2.651,2.6508,2.6505,2.671,2.6717,2.6725,0,0,0,0,0,0,0,0,0,0,0,0,0,2.5941,2.5948,2.6309,2.6312,2.6314,2.6505,2.6508,2.6511,2.6513,2.651,2.6507,2.6504,2.6707,2.6716,2.6726,0,0,0,0,0,0,0,0,0,0,0,0,0,2.6115,2.595,2.6309,2.6338,2.6343,2.6505,2.6508,2.6511,2.6514,2.651,2.6506,2.6503,2.6704,2.6715,2.6727,2.6874,0,0,2.6763,2.6768,0,0,0,0,0,0,0,0,2.6105,2.6129,2.6332,2.6337,2.6342,2.6481,2.6453,2.6633,2.6515,2.6449,2.6505,2.6501,2.6637,2.6654,2.6699,2.6883,2.6892,2.6764,2.6771,2.6776,2.6779,0,0,0,0,0,0,0,2.6093,2.6121,2.6387,2.6335,2.6341,2.6343,2.6364,2.6487,2.6562,2.6454,2.6455,2.6478,2.6639,2.6688,2.6704,2.6895,2.6763,2.6774,2.6781,2.6785,2.7209,2.7213,0,0,0,0,0,0,2.6075,2.611,2.6381,2.6393,2.6212,2.6353,2.6376,2.644,2.656,2.6575,2.6481,2.6477,2.667,2.669,2.6711,2.689,2.6776,2.6787,2.6793,2.7205,2.721,2.7215,0,0,0,0,0,0,2.6067,2.6099,2.6373,2.6252,2.6287,2.6363,2.6435,2.6446,2.6494,2.658,2.6594,2.6517,2.6667,2.6694,2.6833,2.6897,2.6792,2.6802,2.72,2.7207,2.7213,2.725,0,0,0,0,0,0,2.6056,2.6096,2.6152,2.6253,2.6293,2.6491,2.6439,2.6452,2.6514,2.6511,2.6617,2.6631,2.6667,2.6815,2.6844,2.6911,2.6811,2.7195,2.7203,2.7211,2.7243,2.7256,2.7268,0,0,0,0,0,2.6043,2.6155,2.6155,2.6187,2.6364,2.6494,2.6518,2.6555,2.6519,2.6576,2.6631,2.6628,2.6885,2.6829,2.6862,2.6934,2.7191,2.7201,2.721,2.7237,2.7254,2.7268,0,0,0,0,0,0,2.6061,2.6169,2.6169,2.6318,2.6397,2.6494,2.6568,2.6571,2.6663,2.6656,2.67,2.6724,2.6861,2.6912,2.6847,2.7082,2.7034,2.7051,2.7044,2.706,2.7072,2.7057,2.6821,0,0,0,0,0,2.6082,2.6177,2.6267,2.6389,2.6429,2.6491,2.6549,2.6571,2.6655,2.6689,2.6754,2.6837,2.6936,2.7001,2.7098,2.725,2.7274,2.7316,2.7328,2.7338,2.7352,2.7436,2.7456,2.7246,2.7246,2.7246,0,0,2.6126,2.6197,2.6255,2.6394,2.6458,2.6557,2.6519,2.6626,2.6699,2.6705,2.6839,2.689,2.6986,2.7132,2.7199,2.7178,2.7415,2.735,2.7357,2.7366,2.7448,2.7468,2.7485,2.7253,2.7252,2.7251,0,0,2.6258,2.6321,2.6429,2.6494,2.659,2.6631,2.6657,2.6755,2.6788,2.6923,2.6929,2.7019,2.7189,2.7257,2.7313,2.747,2.7471,2.7501,2.7566,2.7648,2.7664,2.7679,2.7735,2.7754,2.7514,2.7514,2.7514,0,2.6301,2.6449,2.6485,2.6591,2.6652,2.6661,2.6771,2.6833,2.6956,2.6999,2.6973,2.7186,2.7251,2.7413,2.7451,2.7497,2.7528,2.7488,2.7659,2.7674,2.7688,2.7742,2.7763,2.7517,2.7517,2.7517,2.7516,0,2.6498,2.66,2.6676,2.6794,2.6864,2.6971,2.7024,2.7091,2.7107,2.7151,2.7288,2.7366,2.7478,2.7518,2.7535,2.7683,2.7666,2.7649,2.7602,2.7711,2.7761,2.7782,2.7521,2.752,2.752,2.7519,0,0,2.6646,2.6781,2.6808,2.6862,2.6969,2.7049,2.7158,2.7266,2.7322,2.7407,2.7499,2.7643,2.7628,2.7692,2.7717,2.7789,2.7907,2.7763,2.7765,2.7786,2.8074,2.8086,2.8109,2.7908,2.7912,2.7915,2.8066,0,2.6789,2.698,2.7015,2.7182,2.7277,2.7287,2.7381,2.7458,2.7502,2.759,2.7639,2.774,2.7712,2.7751,2.7822,2.7877,2.7965,2.7867,2.7995,2.7999,2.797,2.8136,2.8149,2.8287,2.8086,2.809,2.8092,0,2.698,2.7068,2.7244,2.7338,2.7379,2.7463,2.7565,2.7649,2.7736,2.7763,2.7834,2.7851,2.7965,2.7913,2.807,2.8003,2.8057,2.8092,2.8099,2.8112,2.8051,2.8153,2.8332,2.8352,2.8124,2.8121,2.8119,0,2.707,2.7233,2.7359,2.7404,2.7517,2.7576,2.7626,2.7709,2.7772,2.7861,2.7902,2.8005,2.806,2.814,2.8184,2.8142,2.8338,2.829,2.8364,2.8363,2.8405,2.8402,2.8595,2.8441,2.8441,2.844,2.844,0,2.7225,2.7332,2.7401,2.7478,2.7599,2.7639,2.7758,2.7807,2.7881,2.7969,2.7984,2.8067,2.812,2.821,2.8246,2.8371,2.8396,2.8422,2.843,2.842,2.8417,2.8456,2.8447,2.8446,2.8445,2.8444,2.8443,0,2.7346,2.7396,2.7534,2.7628,2.7655,2.7739,2.7821,2.7897,2.7941,2.8052,2.8081,2.815,2.8257,2.8309,2.8443,2.8466,2.8608,2.861,2.8578,2.8581,2.8652,2.8644,2.8877,2.8909,2.8734,2.8736,2.8737,0,2.7441,2.7523,2.7627,2.7686,2.7737,2.7832,2.7896,2.7939,2.8005,2.811,2.8173,2.8281,2.8369,2.854,2.8603,2.8705,2.871,2.8784,2.8725,2.8713,2.871,2.8704,2.8713,2.8794,2.8796,2.8797,2.8799,0,2.7605,2.7625,2.7715,2.7815,2.7889,2.797,2.8049,2.8097,2.8153,2.8226,2.8335,2.8403,2.8539,2.8646,2.8752,2.8805,2.8812,2.8817,2.8839,2.883,2.8807,2.882,2.8606,2.8811,2.881,2.8809,2.8808,2.8808,2.7716,2.7789,2.7873,2.7973,2.8036,2.811,2.8186,2.8238,2.8329,2.8442,2.8462,2.8578,2.8663,2.8806,2.8863,2.8954,2.8938,2.8971,2.8979,2.8986,2.8989,2.8793,2.8974,2.8974,2.8974,2.8973,2.8973,0,2.788,2.7934,2.8025,2.8135,2.8213,2.8211,2.8299,2.8365,2.8466,2.8544,2.863,2.8755,2.8859,2.8929,2.9035,2.9094,2.91,2.9121,2.9116,2.9128,2.8999,2.8968,2.9114,2.9114,2.9114,2.9114,2.9114,2.9114,2.7974,2.8098,2.8128,2.8284,2.8338,2.845,2.85,2.8568,2.863,2.8769,2.8854,2.8899,2.8975,2.9085,2.918,2.9198,2.9236,2.9257,2.9275,2.9152,2.9138,2.9123,2.9095,2.9265,2.9265,2.9397,2.9398,2.9399]},{"header":{"parameterUnit":"m.s-1","parameterCategory":1,"la1":30.2991,"la2":30.254,"lo1":-89.0895,"lo2":-89.0444,"dy":0.0017,"dx":0.0017,"nx":28,"ny":28,"refTime":"2024-08-09T15:00:00:Z","depth":0,"parameterNumber":3,"parameterNumberName":"V-component_of_WINDS"},"data":[0,0,0,0,0,0,0,0,0,0,0,0,0,0,0,0,0,0,0,0,0,0,0,0,0,0,0,0,0,0,0,0,0,0,0,0,0,0,0,0,0,0,0,0,0,0,0,0,0,0,0,0,0,0,0,0,0,0,1.7471,1.7471,0,1.7478,1.7478,1.7478,1.7412,1.741,1.7409,1.7407,1.7416,1.7417,1.7419,0,0,0,0,0,0,0,0,0,0,0,0,0,1.7402,1.7404,1.7471,1.7471,1.7471,1.7478,1.7478,1.7478,1.7413,1.741,1.7408,1.7406,1.7415,1.7417,1.7419,0,0,0,0,0,0,0,0,0,0,0,0,0,1.7423,1.7404,1.7471,1.7439,1.7437,1.7478,1.7478,1.7478,1.7413,1.741,1.7408,1.7405,1.7414,1.7417,1.742,1.7492,0,0,1.7429,1.743,0,0,0,0,0,0,0,0,1.7422,1.7426,1.7444,1.7442,1.7439,1.7441,1.7457,1.7483,1.7414,1.7422,1.7407,1.7404,1.7426,1.7428,1.7435,1.7492,1.7493,1.7429,1.7431,1.7432,1.7433,0,0,0,0,0,0,0,1.742,1.7425,1.7474,1.7444,1.7441,1.7425,1.7425,1.7461,1.744,1.7421,1.7416,1.7418,1.7424,1.7433,1.7435,1.7493,1.7429,1.7431,1.7433,1.7434,1.7608,1.7611,0,0,0,0,0,0,1.7423,1.7424,1.7473,1.7474,1.7423,1.7428,1.7428,1.7443,1.7439,1.7436,1.742,1.7415,1.7429,1.7432,1.7435,1.7519,1.7432,1.7435,1.7436,1.7605,1.7609,1.7612,0,0,0,0,0,0,1.7422,1.7428,1.7473,1.7448,1.7452,1.7432,1.745,1.7445,1.7453,1.7438,1.7434,1.7433,1.7427,1.7431,1.7478,1.7518,1.7436,1.7438,1.7602,1.7606,1.761,1.7687,0,0,0,0,0,0,1.742,1.7428,1.7455,1.7449,1.7454,1.7516,1.7452,1.7447,1.7458,1.7451,1.7449,1.7446,1.7425,1.7474,1.7481,1.7521,1.7441,1.7598,1.7604,1.7609,1.7681,1.7693,1.7704,0,0,0,0,0,1.7418,1.7477,1.7457,1.7464,1.7487,1.7518,1.7521,1.7496,1.7462,1.7489,1.7479,1.7446,1.7513,1.7479,1.7487,1.7528,1.7596,1.7602,1.7609,1.7675,1.7691,1.7704,0,0,0,0,0,0,1.749,1.7476,1.7453,1.7512,1.7517,1.7507,1.7541,1.7513,1.7528,1.7521,1.7489,1.749,1.7541,1.7539,1.7503,1.7597,1.7548,1.7556,1.7596,1.7611,1.7622,1.7622,1.7443,0,0,0,0,0,1.7513,1.7539,1.7525,1.7579,1.7582,1.7561,1.7574,1.7554,1.7557,1.7559,1.7553,1.7558,1.758,1.7595,1.7615,1.768,1.7678,1.7712,1.7723,1.7733,1.7741,1.7774,1.7788,1.7633,1.7633,1.7633,0,0,1.7561,1.7556,1.7574,1.7593,1.7594,1.7622,1.7563,1.7596,1.7616,1.7564,1.7608,1.7603,1.7607,1.7663,1.7687,1.7663,1.7783,1.7741,1.7749,1.7751,1.7782,1.7797,1.781,1.7638,1.7637,1.7636,0,0,1.7661,1.766,1.7704,1.7706,1.7708,1.7694,1.7704,1.7698,1.7693,1.7736,1.7698,1.7721,1.776,1.7764,1.7771,1.7871,1.7841,1.7878,1.794,1.7972,1.7985,1.7995,1.8031,1.8044,1.7886,1.7886,1.7886,0,1.772,1.776,1.773,1.7764,1.7773,1.7727,1.7771,1.7774,1.7783,1.7791,1.7763,1.7809,1.7808,1.7864,1.7888,1.7896,1.7907,1.7879,1.7985,1.7996,1.8005,1.8038,1.8052,1.789,1.789,1.7889,1.7889,0,1.7831,1.786,1.7895,1.7903,1.7916,1.7955,1.7932,1.7948,1.7927,1.7915,1.7959,1.7956,1.7974,1.7985,1.7965,1.8038,1.8023,1.7991,1.7941,1.8025,1.8056,1.8068,1.7897,1.7895,1.7894,1.7893,0,0,1.7979,1.7969,1.7983,1.7985,1.7984,1.8005,1.8041,1.8058,1.8072,1.808,1.8109,1.8142,1.8112,1.812,1.81,1.8128,1.8207,1.8092,1.8092,1.8114,1.8287,1.8311,1.8326,1.8187,1.8189,1.8191,1.8286,0,1.8076,1.8138,1.8111,1.8176,1.8201,1.8156,1.8188,1.819,1.818,1.82,1.8189,1.8213,1.8171,1.8176,1.8202,1.8192,1.8242,1.8185,1.8215,1.8216,1.8215,1.8343,1.8369,1.8459,1.8298,1.83,1.8302,0,1.8198,1.8209,1.8276,1.8268,1.8278,1.8307,1.8319,1.8339,1.834,1.8331,1.8339,1.8312,1.8347,1.8297,1.8345,1.8307,1.8317,1.8314,1.8317,1.8319,1.8264,1.8348,1.8487,1.85,1.832,1.8319,1.8318,0,1.8299,1.833,1.8373,1.8377,1.837,1.8391,1.8389,1.8388,1.8399,1.8409,1.8416,1.8431,1.844,1.8452,1.8429,1.8395,1.848,1.8429,1.8473,1.8474,1.8494,1.8493,1.8636,1.85,1.85,1.85,1.85,0,1.841,1.8452,1.8418,1.8445,1.8491,1.846,1.8506,1.8499,1.8498,1.8523,1.8486,1.851,1.8478,1.8499,1.8482,1.8524,1.8528,1.8521,1.8516,1.8525,1.8526,1.8531,1.8525,1.8504,1.8503,1.8502,1.8501,0,1.853,1.8509,1.8553,1.8542,1.854,1.8574,1.8564,1.8589,1.8575,1.8607,1.8613,1.8592,1.8615,1.8593,1.8615,1.8603,1.8659,1.8645,1.8659,1.8655,1.87,1.8696,1.8853,1.8872,1.8724,1.8725,1.8726,0,1.8603,1.8634,1.8626,1.8639,1.8639,1.8661,1.8672,1.8642,1.8655,1.8658,1.8682,1.8701,1.8715,1.8753,1.8741,1.8757,1.8743,1.8796,1.8745,1.8752,1.8743,1.8742,1.8745,1.8807,1.8809,1.881,1.8811,0,1.8734,1.8721,1.8738,1.8751,1.8764,1.8773,1.8779,1.8792,1.8762,1.8778,1.88,1.881,1.8832,1.8851,1.8863,1.8861,1.8832,1.8827,1.8838,1.8848,1.8854,1.8851,1.8687,1.8824,1.8823,1.8822,1.8821,1.8821,1.8832,1.8857,1.8855,1.8874,1.8875,1.8881,1.8903,1.8892,1.891,1.8924,1.8906,1.8933,1.8933,1.8946,1.8947,1.8968,1.8945,1.8962,1.8966,1.897,1.8977,1.8851,1.897,1.8969,1.8969,1.8969,1.8968,0,1.8961,1.8957,1.8975,1.8984,1.8999,1.8968,1.8973,1.8988,1.9012,1.9014,1.9027,1.9053,1.9071,1.9059,1.9075,1.9094,1.908,1.9099,1.9097,1.9097,1.8996,1.8985,1.9109,1.9109,1.9109,1.9109,1.9109,1.9109,1.903,1.9071,1.9058,1.9099,1.9094,1.912,1.9125,1.9131,1.9132,1.9161,1.9176,1.9167,1.9164,1.9178,1.9194,1.919,1.9197,1.9221,1.9212,1.9118,1.9104,1.9091,1.908,1.9223,1.9223,1.9311,1.9312,1.9313]}]]